Location: *
(55.6049°S, 142.1985°W)
Time: 23:28:17
(UTC+00:00)

Okean-O - Pass Details

Date: 12 May 2021
Orbit: 638 x 641 km, 98.2° (Epoch: 23 June)

Event Time Altitude Azimuth Distance (km) Brightness Sun altitude
Rises 15:49:34 0° 25° (NNE) 2,952 6.7 -11.7°
Reaches altitude 10° 15:51:45 10° 26° (NNE) 2,050 5.9 -11.4°
Maximum altitude 15:56:13 71° 110° (ESE) 694 3.0 -10.8°
Drops below altitude 10° 16:00:43 10° 192° (SSW) 2,075 5.0 -10.2°
Sets 16:02:57 0° 194° (SSW) 2,993 5.8 -9.9°
